TimeEST,TemperatureF,Dew PointF,Humidity,Sea Level PressureIn,VisibilityMPH,Wind Direction,Wind SpeedMPH,Gust SpeedMPH,PrecipitationIn,Events,Conditions,WindDirDegrees,DateUTC
12:54 AM,21.9,15.1,75,30.18,9.0,Calm,Calm,-,N/A,,Partly Cloudy,0,2013-01-06 05:54:00
1:54 AM,25.0,16.0,69,30.16,10.0,SSE,3.5,-,N/A,,Mostly Cloudy,160,2013-01-06 06:54:00
2:54 AM,25.0,17.1,72,30.12,10.0,Calm,Calm,-,N/A,,Overcast,0,2013-01-06 07:54:00
3:54 AM,28.9,19.9,69,30.06,5.0,NNE,4.6,-,0.00,Snow,Light Snow,30,2013-01-06 08:54:00
4:16 AM,28.4,21.2,74,30.04,1.8,Variable,4.6,-,0.00,Snow,Light Snow,0,2013-01-06 09:16:00
4:24 AM,28.4,21.2,74,30.05,1.0,SW,8.1,-,0.00,Snow,Light Snow,220,2013-01-06 09:24:00
4:43 AM,28.4,21.2,74,30.04,2.0,South,4.6,-,0.00,Snow,Light Snow,190,2013-01-06 09:43:00
4:51 AM,28.4,23.0,80,30.04,1.8,SSW,5.8,-,0.00,Snow,Light Snow,210,2013-01-06 09:51:00
4:54 AM,28.0,23.0,81,30.06,1.5,SSW,4.6,-,0.00,Snow,Light Snow,210,2013-01-06 09:54:00
5:12 AM,28.4,24.8,86,30.02,2.0,Variable,4.6,-,0.01,Snow,Light Snow,0,2013-01-06 10:12:00
5:22 AM,28.4,24.8,86,30.02,3.0,Calm,Calm,-,0.01,Snow,Light Snow,0,2013-01-06 10:22:00
5:54 AM,28.9,23.0,78,30.04,10.0,Calm,Calm,-,0.01,,Overcast,0,2013-01-06 10:54:00
6:54 AM,26.1,21.0,81,30.04,10.0,Calm,Calm,-,N/A,,Mostly Cloudy,0,2013-01-06 11:54:00
7:54 AM,27.0,23.0,85,30.02,10.0,Calm,Calm,-,N/A,,Overcast,0,2013-01-06 12:54:00
8:54 AM,30.0,21.9,72,30.01,10.0,Calm,Calm,-,N/A,,Clear,0,2013-01-06 13:54:00
9:54 AM,30.0,23.0,75,30.02,9.0,Calm,Calm,-,N/A,,Overcast,0,2013-01-06 14:54:00
10:03 AM,30.2,24.8,80,29.98,9.0,Calm,Calm,-,N/A,,Overcast,0,2013-01-06 15:03:00
10:54 AM,33.1,23.0,66,30.00,10.0,SSW,4.6,-,N/A,,Overcast,210,2013-01-06 15:54:00
11:54 AM,34.0,23.0,64,29.97,10.0,Calm,Calm,-,N/A,,Overcast,0,2013-01-06 16:54:00
12:09 PM,33.8,24.8,70,29.94,10.0,North,3.5,-,N/A,,Overcast,10,2013-01-06 17:09:00
12:47 PM,33.8,24.8,70,29.92,10.0,Calm,Calm,-,N/A,,Overcast,0,2013-01-06 17:47:00
12:54 PM,34.0,24.1,67,29.96,10.0,Calm,Calm,-,N/A,,Overcast,0,2013-01-06 17:54:00
1:54 PM,34.0,24.1,67,29.94,10.0,Calm,Calm,-,N/A,,Overcast,0,2013-01-06 18:54:00
2:11 PM,35.6,24.8,65,29.90,10.0,SE,3.5,-,N/A,,Mostly Cloudy,140,2013-01-06 19:11:00
2:54 PM,37.0,24.1,59,29.92,10.0,Calm,Calm,-,N/A,,Overcast,0,2013-01-06 19:54:00
3:54 PM,35.1,25.0,67,29.92,10.0,Calm,Calm,-,N/A,,Overcast,0,2013-01-06 20:54:00
4:54 PM,34.0,25.0,70,29.93,10.0,Calm,Calm,-,N/A,,Overcast,0,2013-01-06 21:54:00
5:54 PM,33.1,26.1,75,29.94,10.0,Calm,Calm,-,N/A,,Overcast,0,2013-01-06 22:54:00
6:54 PM,33.1,28.0,82,29.96,3.0,Calm,Calm,-,0.00,Snow,Light Snow,0,2013-01-06 23:54:00
7:54 PM,32.0,28.0,85,29.96,9.0,Calm,Calm,-,0.00,,Overcast,0,2013-01-07 00:54:00
8:54 PM,32.0,28.0,85,29.95,8.0,Calm,Calm,-,N/A,,Overcast,0,2013-01-07 01:54:00
9:54 PM,32.0,27.0,82,29.96,8.0,Calm,Calm,-,N/A,,Overcast,0,2013-01-07 02:54:00
10:54 PM,33.1,28.0,82,29.97,10.0,Calm,Calm,-,N/A,,Overcast,0,2013-01-07 03:54:00
11:39 PM,33.8,28.4,81,29.95,1.8,SW,3.5,-,0.00,Snow,Light Snow,220,2013-01-07 04:39:00
11:45 PM,33.8,28.4,81,29.95,2.0,SSW,5.8,-,0.00,Snow,Light Snow,200,2013-01-07 04:45:00
11:54 PM,34.0,28.9,82,29.98,8.0,SSW,4.6,-,0.00,,Overcast,210,2013-01-07 04:54:00